User: anonymous   Login
Location: Caltech
(34.1382°N, 118.1253°W)
Time: 17:54:52
(UTC-07:00)
Language:

RESURS DK-1 - Orbit

View from above orbital plane
View from above orbital plane
View from above satellite
View from above satellite

Ground track
Ground track

The orbit data is extracted from the following two-line orbital elements,

1 29228U 06021A   16209.72891042  .00000100  00000-0  14993-4 0  9994
2 29228  69.9340 203.4432 0002446 156.0760 204.0515 15.01947600559385
Epoch (UTC): 27 July 2016 17:29:37
Eccentricity: 0.0002446
inclination: 69.9340°
perigee height: 559 km
apogee height: 562 km
right ascension of ascending node: 203.4432°
argument of perigee: 156.0760°
revolutions per day: 15.01947600
mean anomaly at epoch: 204.0515°
orbit number at epoch: 55938

The dashed part of the orbit path shows where the satellite is in the earth's shadow,  

DLR